AirNav   Pilot Hours Calculator
 
 1092 users online  

0MU6 Bradbury-Rolf Memorial Heliport
Higginsville, Missouri, USA

GOING TO HIGGINSVILLE?


FAA INFORMATION EFFECTIVE 31 DECEMBER 2020

Location

FAA Identifier: 0MU6
Lat/Long: 39-04-25.4400N 093-44-09.2200W
39-04.424000N 093-44.153667W
39.0737333,-93.7358944
(estimated)
Elevation: 815 ft. / 248 m (estimated)
Variation: 04E (1995)
Time zone: UTC -6 (UTC -5 during Daylight Saving Time)
Zip code: 64037

Heliport Operations

Heliport use: Private use, MEDICAL
Activation date: 09/1996
Control tower: no
ARTCC: KANSAS CITY CENTER
FSS: COLUMBIA FLIGHT SERVICE STATION
Attendance: UNATNDD
Wind indicator: yes
Segmented circle: no
Lights: FOR FLOOD LGTS CALL 660-584-3832.

Heliport Communications

WX AWOS-3 at RCM (18 nm S): 119.575 (660-422-7010)

Nearby radio navigation aids

VOR radial/distance  VOR name  Freq  Var
ANXr087/18.3NAPOLEON VORTAC114.0007E
BQSr166/34.0BRAYMER VOR/DME111.2003E

Heliport Services

Runway Information

Helipad H1

Dimensions: 60 x 60 ft. / 18 x 18 m
Surface: concrete
Runway edge lights: FLD
Runway edge markings: MARKED WITH LETTER H.
Latitude: 39-04.424000N
Longitude: 093-44.153667W
Elevation: 815.0 ft.
Traffic pattern: leftleft

Heliport Ownership and Management from official FAA records

Ownership: Privately-owned
Owner: FAMILY PRACTICE ASSOC
1200 W 22ND
HIGGINSVILLE, MO 64037
Phone (660) 584-7751
Manager: ROD KIRCHHOFF
850 WILLOW CREEK LN
HIGGINSVILLE, MO 64037
Phone (816) 565-3685

Additional Remarks

A52-H1 30-40 FT PLINES MKD E & S OF HELIPAD.
FOR CD CTC WHITEMAN APCH AT 660-687-3132. WHEN WHITEMAN APCH IS CLSD, CTC KANSAS CITY ARTCC AT 913-254-8508.

Instrument Procedures

There are no published instrument procedures at 0MU6.

Some nearby airports with instrument procedures:

KHIG - Higginsville Industrial Municipal Airport (3 nm E)
KRCM - Skyhaven Airport (18 nm S)
KSZL - Whiteman Air Force Base (22 nm SE)
3GV - East Kansas City Airport (23 nm W)
KMHL - Marshall Memorial Municipal Airport (25 nm E)
 
Loc | Ops | Rwys | IFR | FBO | Links
Com | Nav | Svcs | Stats | Notes
Area around 0MU6 (Bradbury-Rolf Memorial Heliport)
 
Road maps at: MapQuest Bing Google
 
Aerial photo
No photo
 
Sectional chart

 
Airport distance calculator
Flying to Bradbury-Rolf Memorial Heliport? Find the distance to fly.

From to 0MU6

Sunrise and sunset
Times for 16-Jan-2021
 Local
(UTC-6)
 Zulu
(UTC)
Morning civil twilight07:0413:04
Sunrise07:3313:33
Sunset17:1623:16
Evening civil twilight17:4623:46

Current date and time
Zulu (UTC)  16-Jan-2021 20:56:01
Local (UTC-6)  16-Jan-2021 14:56:01
 
METAR
KRCM 
18nm S 
162035Z AUTO 27007KT 10SM SCT019 OVC027 00/M02 A2991 RMK AO2
KSZL 
23nm SE 
161956Z 25010KT 10SM OVC016 01/M03 A2987 RMK AO2A SLP125 T00051027 $
KMHL 
25nm E 
162035Z AUTO 27007KT 7SM OVC017 00/M02 A2991 RMK AO2
KLXT 
30nm W 
161953Z AUTO 28009KT 10SM BKN018 OVC023 00/M04 A2991 RMK AO2 SLP136 T00001039
KGPH 
31nm NW 
162035Z AUTO 30006KT 10SM OVC020 00/M03 A2990 RMK AO2
KDMO 
34nm SE 
161953Z AUTO 28011KT 10SM OVC022 01/M03 A2991 RMK AO2 SLP135 T00111033
TAF
KSZL 
23nm SE 
150051Z 1421/1601 30015G25KT 9999 BKN030 OVC050 620307 QNH2961INS TEMPO 1421/1424 30025G35KT 9000 -RA BKN025 OVC050 530003 BECMG 1500/1501 31012G18KT 9999 OVC040 620409 QNH2965INS BECMG 1508/1510 30012G18KT 1600 -SN OVC010 620109 621007 QNH2953INS BECMG 1515/1516 30015G25KT 0800 -SN BLSN OVC005 620059 620957 QNH2958INS BECMG 1522/1523 30012G18KT 1600 -SN OVC007 620079 620979 QNH2960INS TX03/1421Z TN00/1510Z LAST NO AMDS AFT 1501 NEXT 1711
NOTAMs
Click for the latest NOTAMs
NOTAMs are issued by the DoD/FAA and will open in a separate window not controlled by AirNav.

 

 
 

Would you like to see your business listed on this page?

 If your business provides an interesting product or service to pilots, flight crews, aircraft, or users of the Bradbury-Rolf Memorial Heliport, you should consider listing it here.  To start the listing process, click on the button below
 
Add a business
 

Other Pages about Bradbury-Rolf Memorial Heliport

Update a link
 
Copyright © AirNav, LLC. All rights reserved. Privacy Policy  Contact